This is the latest recevied weather packets stored in our database for station/object K4KMJ. If no packets are shown the sender has not sent any weather packets the latest 10 day(s).
| Time | Temp. | Humidity | Pressure | Rain* | Wind** | Luminosity | Snow |
|---|---|---|---|---|---|---|---|
| 1777938877 | 22.22° C | 73% | 1017.8 hPa | 0 mm | - | 7 W/m² | - |
| 1777938573 | 22.22° C | 72% | 1017.4 hPa | 0 mm | - | 11 W/m² | - |
| 1777938270 | 22.22° C | 72% | 1017.4 hPa | 0 mm | - | 14 W/m² | - |
| 1777937967 | 22.78° C | 72% | 1017.5 hPa | 0 mm | - | 17 W/m² | - |
| 1777937663 | 22.78° C | 71% | 1017.6 hPa | 0 mm | - | 21 W/m² | - |
| 1777937359 | 22.78° C | 71% | 1017.7 hPa | 0 mm | - | 23 W/m² | - |
| 1777937057 | 22.78° C | 70% | 1017.4 hPa | 0 mm | - | 28 W/m² | - |
| 1777936754 | 23.33° C | 70% | 1017.4 hPa | 0 mm | - | 36 W/m² | - |
| 1777936450 | 23.33° C | 69% | 1017.5 hPa | 0 mm | - | 43 W/m² | - |
| 1777936147 | 23.33° C | 69% | 1017.3 hPa | 0 mm | - | 56 W/m² | - |
| 1777935844 | 23.33° C | 69% | 1017.6 hPa | 0 mm | - | 53 W/m² | - |
| 1777935543 | 23.33° C | 68% | 1017.6 hPa | 0 mm | - | 58 W/m² | - |
| 1777935238 | 23.33° C | 68% | 1017.5 hPa | 0 mm | - | 69 W/m² | - |
| 1777934936 | 23.89° C | 68% | 1017.4 hPa | 0 mm | - | 65 W/m² | - |
| 1777934632 | 23.89° C | 68% | 1017.3 hPa | 0 mm | - | 69 W/m² | - |
| 1777934329 | 23.33° C | 68% | 1017.5 hPa | 0 mm | - | 80 W/m² | - |
| 1777934025 | 23.33° C | 68% | 1017.3 hPa | 0 mm | - | 62 W/m² | - |
| 1777933721 | 23.89° C | 67% | 1017.6 hPa | 0 mm | - | 75 W/m² | - |
| 1777933418 | 23.89° C | 67% | 1017.7 hPa | 0 mm | - | 172 W/m² | - |
| 1777933117 | 23.89° C | 67% | 1017.4 hPa | 0 mm | - | 213 W/m² | - |
| 1777932813 | 23.89° C | 67% | 1017.3 hPa | 0 mm | - | 214 W/m² | - |
| 1777932510 | 23.89° C | 67% | 1017.6 hPa | 0 mm | - | 235 W/m² | - |
| 1777932207 | 23.89° C | 67% | 1017.4 hPa | 0 mm | - | 184 W/m² | - |
| 1777931904 | 23.89° C | 67% | 1017.4 hPa | 0 mm | - | 184 W/m² | - |
| 1777931600 | 24.44° C | 67% | 1017.3 hPa | 0 mm | - | 228 W/m² | - |
* Rain latest hour (hover to see other rain measurements)
** Current wind speed in m/s (hover to see current wind gust speed)